Greenville Downtown Airport Greenville US
ICAO: KGMU
IATA: GMU
Category: Medium
Scheduled Services: No

Elevation: 1048 ft
TransAlt. 18000 ft.

Airport Communications:
GREER APP/DEP:118.8
ASOS:127.075
CTAF:119.9
GND:121.25
TWR:119.9
UNICOM:122.95

KGMU Zoom In..

If you have problems with the map follow the link
https://www.worldairports.se/pages/airport.php?
ICAO=KGMU

Runways:

(A) RW 01 length 5393 ft width 100 ft
ILS 109.70 / hdg 6

(B) RW 10 length 4000 ft width 80 ft
---- / hdg 96

(C) RW 19 length 5393 ft width 100 ft
---- / hdg 186

(D) RW 28 length 4000 ft width 80 ft
---- / hdg 276

Location; KGMU
Day. 19 / Time. 13.53 Zulu
* Altimeter: 30.17
* Temperature: 11° c. 51.8°f.
* Wind from: 000° Speed 00 kn.
Dewpoint: 08° c.
Visibility: 10 Statute Miles.
Clouds: Clear (automated report).

KGMU 191353Z 00000KT 10SM CLR 11/08 A3017 RMK AO2 SLP216 T01110078


Wind - Calm.

 
 
jpsmedia.com for Web Design worldairports.se 2018   terms of use